PST,Max TemperatureF,Mean TemperatureF,Min TemperatureF,Max Dew PointF,MeanDew PointF,Min DewpointF,Max Humidity, Mean Humidity, Min Humidity, Max Sea Level PressureIn, Mean Sea Level PressureIn, Min Sea Level PressureIn, Max VisibilityMiles, Mean VisibilityMiles, Min VisibilityMiles, Max Wind SpeedMPH, Mean Wind SpeedMPH, Max Gust SpeedMPH,PrecipitationIn, CloudCover, Events, WindDirDegrees
2012-12-1,54,51,48,39,35,32,66,53,42,29.71,29.68,29.61,15,15,15,24,17,32,0.00,3,,217
2012-12-2,54,48,42,42,37,32,99,64,45,29.84,29.48,29.24,15,15,15,24,14,34,0.00,4,,236
2012-12-3,55,50,46,40,37,35,69,62,52,30.03,29.95,29.81,15,15,15,23,16,32,0.00,6,,197
2012-12-4,59,50,42,48,45,35,99,80,60,29.78,29.74,29.71,15,15,10,24,12,30,0.09,8,Rain,154
2012-12-5,51,44,36,42,29,24,76,57,35,30.20,30.07,29.74,15,15,15,18,11,,0.00,2,,260
2012-12-6,48,38,28,35,31,27,94,78,53,30.17,30.09,30.02,15,15,15,20,6,,0.00,5,,201
2012-12-7,52,42,33,35,32,30,88,66,49,30.07,29.95,29.85,15,15,15,28,11,38,0.00,7,,236
2012-12-8,41,36,34,29,27,24,70,65,57,30.21,30.18,30.12,15,15,15,7,5,,0.00,8,Snow,60
2012-12-9,38,33,28,32,29,27,96,84,78,30.43,30.35,30.21,15,14,8,10,5,,0.00,6,Snow,103
2012-12-10,33,30,27,33,31,26,100,99,94,30.34,30.25,30.06,15,3,0,7,4,,0.00,6,Fog,100
2012-12-11,36,32,29,35,32,30,100,97,88,30.01,29.74,29.58,15,6,0,7,4,,0.01,8,Fog-Rain,328
2012-12-12,36,32,27,36,34,28,100,97,92,30.02,29.80,29.59,15,6,0,9,6,,0.00,7,Fog,257
2012-12-13,32,28,25,32,31,25,100,98,93,30.08,30.02,29.90,6,1,0,6,3,,0.00,7,Fog,178
2012-12-14,35,33,31,32,32,31,99,95,88,29.94,29.86,29.81,12,7,1,6,4,,0.02,8,Snow,330
2012-12-15,34,32,30,31,30,30,98,91,86,29.91,29.87,29.78,12,9,4,9,4,,0.00,8,,132
2012-12-16,43,36,30,35,30,28,87,70,55,29.78,29.63,29.16,15,15,15,17,8,,0.03,7,,204
2012-12-17,47,40,33,36,29,21,69,59,46,29.87,29.43,29.07,15,15,15,44,25,66,0.00,3,,227
2012-12-18,41,34,26,24,22,20,83,67,47,30.02,29.94,29.89,15,15,15,16,10,,0.00,2,,251
2012-12-19,45,33,21,32,24,19,97,71,37,30.02,29.93,29.79,15,15,10,28,9,40,0.00,7,Rain-Snow,132
2012-12-20,56,48,39,32,25,20,75,44,27,29.85,29.73,29.65,15,15,15,32,21,48,0.00,7,,160
2012-12-21,39,36,32,35,33,31,96,87,75,29.89,29.86,29.81,15,14,10,12,8,,0.01,7,Rain,293
2012-12-22,39,37,35,37,35,34,97,92,86,29.64,29.62,29.60,15,14,10,10,8,,0.03,8,,317
2012-12-23,35,32,30,34,32,30,97,93,88,29.84,29.79,29.70,15,15,15,14,9,,0.00,8,,315
2012-12-24,47,40,34,30,30,28,85,63,47,30.08,30.02,29.92,15,15,15,15,12,,0.00,2,,271
2012-12-25,31,30,30,31,30,28,100,96,91,30.03,29.94,29.86,15,6,0,14,9,,0.00,8,Fog-Snow,311
2012-12-26,37,34,31,32,31,30,100,94,74,29.99,29.87,29.83,15,10,1,9,6,,0.00,8,Snow,280
2012-12-27,35,33,31,34,31,30,100,96,88,30.22,30.10,30.01,15,10,2,6,4,,0.00,7,,258
2012-12-28,33,31,29,32,30,28,96,94,92,30.27,30.24,30.22,15,11,8,8,6,,0.00,8,,254
2012-12-29,32,31,30,29,27,25,90,83,74,30.25,30.24,30.19,15,12,2,6,5,,0.00,8,Snow,219
2012-12-30,29,26,23,29,26,22,99,97,94,30.39,30.37,30.32,15,8,1,5,4,,0.00,7,,328
2012-12-31,29,26,24,27,26,24,98,93,88,30.47,30.41,30.38,12,9,4,7,4,,0.00,8,,286